CZ-6A DEB, 54510

Orbit data source: Space-Track

CZ-6A DEB, 54510 is space debris in SSO originally from a launch on Fri, 11 Nov 2022 UTC launched from the Taiyaun Space Center, China (TSC). Debris objects in space refer to the collection of defunct objects orbiting the Earth. Examples of debris include non-operational satellites, rocket bodies, and fragments generated from explosions, collisions, or faulty payload assembly.

Loading next visibility...
Identifier
54510, 2022-151JN
Orbit
SSO
Country
Flag of CNCN / PRC
Related business
Manufacturer
SAST
Mission
Spacecraft
Bus & Motor
Unknown
Mass
Unknown
Launch date (UTC)
2022-11-11 (4 years ago)
Launch vehicle
Unknown
Launch site
Taiyaun Space Center, China (TSC)
Object type
Payload
Rocket body
Debris
Shape & HBR
Unknown shape, 0.1 m
Radar Cross Section
Medium (>0.1 m² and <1 m²)

Expand to show TLE details & history
Last TLE update: 12 hours ago

TLE from 12 hours ago
0 CZ-6A DEB
1 54510U 22151JN  26236.09994053  .00002102  00000-0  60842-3 0  9992
2 54510  98.6719 285.2893 0061925  93.3780 267.4496 14.44466318198295
Epoch: 2026-08-24T02:23Z
TLE epoch observation values (Epoch: 2026-08-24T02:23:54.861Z)
Latitude
-0.00008°
Longitude
-83.07577°
Altitude
748.965 km
Speed
7.479 km/s
True Right ascension
19h 01m 09s
True Declination
0° 00' 00"
Sunlit
Object was in full shadow at epoch
Visualization orbit readout
Latitude
Unknown
Longitude
Unknown
Altitude
Unknown
Speed
Unknown
Apparent Right ascension
Unknown
Apparent Declination
Unknown
Sunlit
N/A
Visualization observer readout
Local Sidereal Time
05:48:39
Azimuth
Unknown
Elevation
Unknown
Doppler factor
Unknown
Orbital elements
Apogee altitude
784.988 km
Perigee altitude
696.819 km
Semi-major axis
7,119.041 km
Eccentricity
0.00619
Inclination
98.6719°
RAAN
285.2893°
Arg. of periapsis
93.378°
True anomaly
266.74096°
Mean anomaly
267.4496°
Eccentric anomaly
267.09525°
Mean motion
3.61336 °/min
Orbital period
99.63 mins
BSTAR
0.00060842
Loading maneuver chart data...
Computing Atmospheric mass density...
Loading historical data...
Loading historical data...
Loading historical data...
Loading historical data...
Loading historical data...
Loading historical data...
Loading historical data...

Documentation

Showing up to 5 results
|